Volver al catálogo

ONEWEB-0691

ActivoComunicacionesPO
NORAD 61599·PAYLOAD·🇬🇧 United Kingdom

Lanzado Oct 20, 2024 desde Vandenberg Space Force Base

Loading…

Próximos Pases (próximas 24 horas)

TLE

ActualizadoSource: CelesTrak SupGP

Época: Sep 14, 2026, 15:19 UTC

1 61599C 24188F   26257.63833750  .00002420  00000+0  68376-2 0  2576
2 61599  87.8975   3.2014 0002010 113.3571 353.6483 13.11407911    11

Sigue ONEWEB-0691 en tiempo real con AllMySat

Download on the App Store